Flag for Ethiopia Weather past 2 weeks in Adama, Ethiopia

Now
55 °F

Passing clouds.


Feels Like: 53 °F
Forecast: 55 / 83 °F
Wind: 9 mph from West

Location: Addis Ababa Airport

Current Time: Aug 23, 2014 at 5:37:50 AM

Latest Report: Aug 23, 2014 at 5:00 AM


Visibility: N/A

Pressure: 30.27 "Hg

Humidity: 82%

Dew point: 50 °F

Location of AdamaLocation

Historic Weather in Adama — Graph

°F

Adama temperature yesterday

Maximum temperature yesterday: 68 °F (at 12:00 PM)
Minimum temperature yesterday: 55 °F (at 6:00 AM)
Average temperature yesterday: 60 °F

Past Weeks' High & Low Weather Summary

 TemperatureHumidityPressure
High70 °F (Aug 14, 2:00 PM)100% (Aug 9, 6:00 AM)30.45 "Hg (Aug 9, 6:00 AM)
Low54 °F (Aug 9, 5:00 AM)57% (Aug 14, 4:00 PM)30.18 "Hg (Aug 22, 8:00 AM)
Average60 °F80%30.32 "Hg
* Reported Aug 8 4:00 AM — Aug 23 4:00 AM, Adama, Weather by CustomWeather, © 2014

Note: Actual official high and low records may vary slightly from our data, if they occured in-between our weather recording intervals... More about our weather records

Advertising

Adama weather history for previous 24 hours

 ConditionsComfort  
Time TempWeatherWind HumidityBarometerVisibility
4:00 AM
Aug 23
55 °FPassing clouds.9 mph82%30.27 "HgN/A
3:00 AM55 °FPassing clouds.5 mph82%30.24 "HgN/A
2:00 AM55 °FPassing clouds.5 mph88%30.27 "HgN/A
1:00 AM55 °FPassing clouds.7 mph88%30.30 "HgN/A
12:00 AM55 °FPartly cloudy.5 mph94%30.30 "HgN/A
11:00 PM
Aug 22
57 °FPartly cloudy.5 mph88%30.33 "HgN/A
10:00 PM57 °FPartly cloudy.5 mph88%30.33 "HgN/A
9:00 PM59 °FPassing clouds.5 mph82%30.30 "HgN/A
8:00 PM61 °FPassing clouds.2 mph83%30.27 "HgN/A
7:00 PM61 °FPassing clouds.2 mph83%30.27 "HgN/A
6:00 PM63 °FPassing clouds.5 mph73%30.24 "HgN/A
5:00 PM61 °FPartly sunny.7 mph83%30.24 "HgN/A
4:00 PM63 °FPartly sunny.16 mph73%30.30 "HgN/A
2:00 PM57 °FPassing clouds.9 mph88%30.27 "HgN/A
12:00 PM68 °FHail. Passing clouds.7 mph60%30.30 "Hg6 mi
11:00 AM64 °FPartly sunny.12 mph73%30.33 "HgN/A
10:00 AM64 °FPartly sunny.14 mph68%30.33 "HgN/A
9:00 AM63 °FFog.14 mph73%30.33 "Hg6 mi
8:00 AM59 °FFog.7 mph82%30.18 "Hg6 mi
7:00 AM55 °FScattered clouds.5 mph82%30.27 "HgN/A
6:00 AM55 °FPassing clouds.7 mph82%30.24 "HgN/A
Weather by CustomWeather, © 2014

See weather overviewHow to use our weather pages